This is the latest recevied weather packets stored in our database for station/object W0VI. If no packets are shown the sender has not sent any weather packets the latest 10 day(s).
| Time | Temp. | Humidity | Pressure | Rain* | Wind** | Luminosity | Snow |
|---|---|---|---|---|---|---|---|
| 1787839313 | 20° C | 82% | 1019.1 hPa | 0 mm | - | 254 W/m² | - |
| 1787839013 | 19.44° C | 84% | 1019 hPa | 0 mm | - | 235 W/m² | - |
| 1787838712 | 18.89° C | 85% | 1018.8 hPa | 0 mm | - | 221 W/m² | - |
| 1787838411 | 18.89° C | 85% | 1019 hPa | 0 mm | - | 217 W/m² | - |
| 1787838110 | 18.89° C | 86% | 1018.9 hPa | 0 mm | - | 184 W/m² | - |
| 1787837805 | 18.33° C | 87% | 1019 hPa | 0 mm | - | 169 W/m² | - |
| 1787837499 | 17.78° C | 87% | 1018.9 hPa | 0 mm | - | 160 W/m² | - |
| 1787837194 | 17.78° C | 88% | 1018.8 hPa | 0 mm | - | 144 W/m² | - |
| 1787836893 | 17.22° C | 89% | 1018.6 hPa | 0 mm | - | 146 W/m² | - |
| 1787836589 | 17.22° C | 90% | 1018.8 hPa | 0 mm | - | 97 W/m² | - |
| 1787836288 | 16.67° C | 91% | 1018.9 hPa | 0 mm | - | 64 W/m² | - |
| 1787835984 | 16.67° C | 93% | 1018.7 hPa | 0 mm | - | 71 W/m² | - |
| 1787835680 | 16.67° C | 95% | 1018.6 hPa | 0 mm | - | 54 W/m² | - |
| 1787835374 | 16.11° C | 96% | 1018.6 hPa | 0 mm | - | 60 W/m² | - |
| 1787835069 | 16.11° C | 97% | 1018.5 hPa | 0 mm | - | 47 W/m² | - |
| 1787834768 | 15.56° C | 97% | 1018.7 hPa | 0 mm | - | 44 W/m² | - |
| 1787834463 | 15.56° C | 97% | 1018.5 hPa | 0 mm | - | 41 W/m² | - |
| 1787834159 | 15.56° C | 97% | 1018.5 hPa | 0 mm | - | 41 W/m² | - |
| 1787833854 | 15° C | 97% | 1018.4 hPa | 0 mm | - | 35 W/m² | - |
| 1787833549 | 15° C | 97% | 1018.3 hPa | 0 mm | - | 34 W/m² | - |
| 1787833245 | 15° C | 97% | 1018.3 hPa | 0 mm | - | 28 W/m² | - |
| 1787832940 | 15° C | 97% | 1018.3 hPa | 0 mm | - | 25 W/m² | - |
| 1787832637 | 15° C | 97% | 1018.3 hPa | 0 mm | - | 22 W/m² | - |
| 1787832335 | 14.44° C | 97% | 1018.1 hPa | 0 mm | - | 19 W/m² | - |
| 1787832034 | 15° C | 96% | 1018.2 hPa | 0 mm | - | 16 W/m² | - |
* Rain latest hour (hover to see other rain measurements)
** Current wind speed in m/s (hover to see current wind gust speed)